Regional Weather Roundup
Issued by NWS

Home | Current Version | Previous Version | Graphics & Text | Print | Product List | Glossary On
Versions: 1 2 3 4 5 6 7 8 9 10 11 12 13 14 15 16 17 18 19 20 21 22 23 24 25 26 27 28 29 30 31 32 33 34 35 36 37 38 39 40 41 42 43 44 45 46 47 48 49 50
000
ASUS43 KOAX 281310
RWRNE

WEATHER ROUNDUP FOR NEBRASKA
NATIONAL WEATHER SERVICE OMAHA NE
800 AM CDT SAT MAY 28 2016

NOTES: SATELLITE DATA IS BEING USED TO AUGMENT CLOUD COVER ABOVE
       12000 FEET.
       "FAIR" INDICATES FEW OR NO CLOUDS BELOW 12,000 FEET WITH NO
       SIGNIFICANT WEATHER AND/OR OBSTRUCTIONS TO VISIBILITY.

  * THESE STATIONS DO NOT REPORT WEATHER SUCH AS RAIN...SNOW OR FOG.

NEZ001>004-019>022-054>056-281400-
NEBRASKA PANHANDLE

CITY           SKY/WX    TMP DP  RH WIND       PRES   REMARKS
SCOTTSBLUFF    SUNNY     45  42  89 NW5       29.94R
ALLIANCE       SUNNY     44  42  93 W3        29.92R
CHADRON        SUNNY     45  43  93 W8        29.91R
KIMBALL        SUNNY     46  43  89 W8        29.97R
SIDNEY         SUNNY     47  43  86 W6        29.95R
$$

NEZ057>060-069>072-079>082-281400-
SOUTHWEST NEBRASKA

CITY           SKY/WX    TMP DP  RH WIND       PRES   REMARKS
NORTH PLATTE   MOSUNNY   53  50  89 W7        29.89R
IMPERIAL       SUNNY     52  46  80 NW7       29.91R
LEXINGTON      CLOUDY    56  52  89 W8        29.85R
MCCOOK         SUNNY     54  51  90 NW9       29.88R
OGALLALA       SUNNY     52  48  88 CALM      29.91S
$$

NEZ005>010-023>029-035>040-094-281400-
NORTH CENTRAL NEBRASKA

CITY           SKY/WX    TMP DP  RH WIND       PRES   REMARKS
VALENTINE      CLOUDY    54  50  86 W7        29.86R
AINSWORTH      CLOUDY    56  52  85 NW8       29.84R
BROKEN BOW     CLOUDY    57  53  86 W12       29.83R
O`NEILL        RAIN      57  56  94 NW10      29.78S
ORD            CLOUDY    57  54  89 W8        29.79R
THEDFORD       CLOUDY    53  51  92 W8        29.87R
$$

NEZ041-046>049-061>064-073>077-083>087-281400-
SOUTH CENTRAL NEBRASKA

CITY           SKY/WX    TMP DP  RH WIND       PRES   REMARKS
GRAND ISLAND   LGT RAIN  57  54  89 NW10      29.81R
AURORA         CLOUDY    58  57  96 NW13      29.80R
HASTINGS       LGT RAIN  56  54  93 NW8       29.82R
HEBRON         CLOUDY    57  56  97 CALM      29.81R
HOLDREGE       PTSUNNY   56  54  92 NW3       29.85R
KEARNEY *      CLOUDY    57  54  88 NW6       29.83S
YORK           CLOUDY    57  55  94 NW10      29.80R
$$

NEZ011>018-030>034-042>045-281400-
NORTHEAST NEBRASKA

CITY           SKY/WX    TMP DP  RH WIND       PRES   REMARKS
NORFOLK        LGT RAIN  58  56  93 SW12      29.72R FOG
ALBION         RAIN      56  55  94 W9G16     29.77R
BLAIR          CLOUDY    61  59  93 S7        29.76R
FREMONT        CLOUDY    61  58  91 SW6       29.76R
TEKAMAH        CLOUDY    62  58  86 S9        29.75R
WAYNE          CLOUDY    60  58  92 S8        29.73R
$$

NEZ050>053-065>068-078-088>093-281400-
SOUTHEAST NEBRASKA

CITY           SKY/WX    TMP DP  RH WIND       PRES   REMARKS
LINCOLN        CLOUDY    60  56  86 W5        29.78R
OMAHA EPPLEY   PTSUNNY   64  58  80 S14       29.76R
BEATRICE       CLOUDY    59  57  92 CALM      29.78R
FALLS CITY     LGT RAIN  61  59  93 W3        29.76R
NEBRASKA CITY  MOSUNNY   62  62 100 SW7       29.77R
PLATTSMOUTH    CLOUDY    63  60  91 S6        29.77S
$$

NEZ044-045-051>053-067-281400-
OMAHA AREA

CITY           SKY/WX    TMP DP  RH WIND       PRES   REMARKS
OMAHA EPPLEY   PTSUNNY   64  58  80 S14       29.76R
BLAIR          CLOUDY    61  59  93 S7        29.76R
FREMONT        CLOUDY    61  58  91 SW6       29.76R
MILLARD        CLOUDY    63  58  85 SW3       29.76R
OFFUTT AFB     MOSUNNY   62  58  87 S8        29.76R
PLATTSMOUTH    CLOUDY    63  60  91 S6        29.77S
WAHOO          CLOUDY    60  57  89 SW5       29.77R
$$



USA.gov is the U.S. government's official web portal to all federal, state and local government web resources and services.